Content
SEND FEEDBACK

Daily
Averages
Monthly
Summary
Canada

INGONISH BEACH, NOVA SCOTIA


Home > North America > Canada > Nova Scotia
Elevation: 16 feet     Latitude: 46 39N     Longitude: 060 24W

WEATHER
 
SELECT A DAY
Number of Records: 127,986;   Date Range: 12/10/00 - 8/31/14
 
SHARE

PRINT THIS DATA

[ ← Previous Day ]
WEATHER ALMANAC - FEBRUARY 12, 2013
[ Next Day → ]
[ °C ]   °F
Weather ElementAverageHighLow
Temperature30.6 °F35.4 °F (3:00 pm)23.2 °F (1:00 am)
Dewpoint28 °F33.6 °F (7:00 pm)21 °F (2:00 am)
Humidity89.6 %97 % (7:00 pm)76 % (8:00 pm)
Barometer29.44 in29.95 in (1:00 am)29.08 in (9:00 pm)
Wind Speed3.4 mph15 mph (10:00 pm)
Wind Gust27.6 mph (9:00 pm)
Weather ElementAverage
Wind DirectionESE (125.6 °)

Weather ElementTotal
Precipitation0.36 in
Heating Degree Days35.7 (Base 65)
Averaged from 27 records on February 12, 2013
WEATHER CONDITIONS BREAKOUT
WIND DIRECTION BREAKOUT
WEATHER BY HOUR - FEBRUARY 12, 2013
[ °C ]   °F
Local TimeTemperatureDewpointHumidityBarometerVisibilityWind DirectionWind SpeedGust SpeedPrecipitationEventsConditions
1:00 AM23.2 °F21.2 °F92 %29.95 inENE (60°)1.2 mph
2:00 AM24.0 °F21.0 °F84 %29.91 inSW (230°)1.2 mph
2:00 AM23.5 °F21.2 °F91 %29.91 inSW (230°)1.2 mph
3:00 AM26.1 °F22.1 °F85 %29.87 inSE (140°)4.6 mph
4:00 AM25.9 °F23.2 °F90 %29.82 inESE (110°)2.3 mph
5:00 AM25.7 °F24.1 °F94 %29.78 inNorth (10°)1.2 mph0.03 in
6:00 AM25.9 °F24.6 °F95 %29.73 inCalm0.07 in
7:00 AM27.5 °F26.6 °F96 %29.69 inNorth (10°)2.3 mph0.07 in
8:00 AM29.0 °F28.0 °F95 %29.63 inENE (70°)3.5 mph
8:00 AM28.9 °F28.0 °F96 %29.63 inENE (70°)3.5 mph0.05 in
9:00 AM29.5 °F28.0 °F94 %29.58 inNNE (20°)2.3 mph0.05 in
10:00 AM30.9 °F29.1 °F93 %29.52 inNorth (10°)2.3 mph0.04 in
11:00 AM31.8 °F29.8 °F92 %29.46 inNorth (10°)2.3 mph0.03 in
12:00 PM33.3 °F30.4 °F89 %29.38 inNNE (20°)1.2 mph
1:00 PM34.0 °F30.4 °F87 %29.31 inNorth (360°)2.3 mph
2:00 PM35.0 °F31.0 °F81 %29.25 inNorth (10°)2.3 mph
2:00 PM34.9 °F31.3 °F87 %29.25 inNorth (10°)2.3 mph
3:00 PM35.4 °F30.7 °F83 %29.21 inEast (90°)2.3 mph
4:00 PM33.4 °F31.8 °F94 %29.20 inSouth (190°)4.6 mph
5:00 PM33.1 °F32.0 °F96 %29.14 inSouth (170°)1.2 mph
6:00 PM33.3 °F31.6 °F94 %29.12 inSW (220°)3.5 mph
7:00 PM34.3 °F33.6 °F97 %29.12 inESE (120°)2.3 mph0.02 in
8:00 PM35.0 °F30.0 °F76 %29.10 inWSW (250°)6.9 mph
8:00 PM34.7 °F30.2 °F84 %29.10 inWSW (250°)6.9 mph17.3 mph
9:00 PM33.4 °F29.5 °F85 %29.08 inWSW (250°)12.7 mph27.6 mph
10:00 PM33.3 °F27.3 °F79 %29.08 inWest (260°)15.0 mph26.5 mph
11:00 PM31.3 °F28.8 °F90 %29.15 inSW (220°)1.2 mph
Hourly data recorded from CXIB, located miles away from Ingonish Beach, Nova Scotia







STORIES FROM OUR PARTNERS